Location: Newark
(45.3833°N, 12.0667°E)
Time: 21:11:48
(UTC+00:00)

ISS - Visible Passes

Search period start: 22 October 2019 00:00
Search period end: 01 November 2019 00:00
Orbit: 411 x 421 km, 51.6° (Epoch: 23 October)

Date Brightness Start Highest point End Pass type
(mag) Time Alt. Az. Time Alt. Az. Time Alt. Az.
22 Oct -0.1 04:51:54 10° SE 04:52:14 10° SE 04:52:35 10° SE visible
24 Oct -1.5 04:48:41 10° SSW 04:51:30 25° SE 04:54:20 10° E visible
25 Oct -0.9 04:01:01 10° S 04:03:07 16° SE 04:05:14 10° E visible
26 Oct -3.3 04:47:35 10° SW 04:50:55 61° SE 04:54:14 10° ENE visible
27 Oct -2.5 04:00:54 24° SSW 04:02:24 37° SE 04:05:33 10° ENE visible
28 Oct -1.3 03:14:47 21° ESE 03:14:47 21° ESE 03:16:41 10° E visible
28 Oct -3.7 04:47:42 14° WSW 04:50:27 61° NNW 04:53:47 10° ENE visible
29 Oct -3.9 04:01:27 69° WSW 04:01:49 89° SSE 04:05:12 10° ENE visible
30 Oct -1.3 03:15:04 24° ENE 03:15:04 24° ENE 03:16:33 10° ENE visible
30 Oct -2.9 04:47:58 17° WNW 04:50:06 36° NNW 04:53:15 10° NE visible
31 Oct -3.3 04:01:29 46° NNW 04:01:29 46° NNW 04:04:39 10° NE visible
